Torna al catalogo

FENGYUN 1C DEB *

LostPO
NORAD 47010·DEBRIS·🇨🇳 China

Lanciato May 10, 1999 da Taiyuan Satellite Launch Center

Loading…

Prossimi Passaggi (prossime 24 ore)

TLE

ObsoletoSource: Space-Track

Epoca: Oct 8, 2022, 13:58 UTC

1 47010U 99025FAL 22281.58238750  .00002919  00000-0  26839-2 0  9991
2 47010  98.2963 201.7301 0299831  32.2337  89.8725 13.65041721520777

Traccia FENGYUN 1C DEB * in tempo reale con AllMySat

Download on the App Store